When you browse on this site, cookies collect data to enhance your experience and personalize the content and advertising you see.
Visit our Privacy Policy to learn more. By continuing to use the site, you agree to this use of cookies and data.

Hourly Weather Airdrie

Today, 7 July, Tuesday

Time Temperature Precipitation Wind Pressure Humidity
00:00 +9°C° 0 mm 3 mps 754 mmHg 93%
01:00 +9°C° 0 mm 3 mps 754 mmHg 93%
02:00 +9°C° 0 mm 3 mps 754 mmHg 94%
03:00 +9°C° 0 mm 3 mps 754 mmHg 94%
04:00 +9°C° 0 mm 3 mps 753 mmHg 93%
05:00 +10°C° 0 mm 3 mps 753 mmHg 92%
06:00 +10°C° 0 mm 3 mps 753 mmHg 90%
07:00 +11°C° 0.1 mm 3 mps 753 mmHg 87%
08:00 +11°C° 0.1 mm 3 mps 753 mmHg 85%
09:00 +12°C° 0.1 mm 3 mps 753 mmHg 82%
10:00 +12°C° 0.1 mm 3 mps 753 mmHg 80%
11:00 +13°C° 0.1 mm 4 mps 753 mmHg 78%
12:00 +13°C° 0.1 mm 4 mps 753 mmHg 76%
13:00 +14°C° 0.1 mm 4 mps 753 mmHg 74%
14:00 +14°C° 0.1 mm 4 mps 752 mmHg 72%
15:00 +15°C° 0.1 mm 4 mps 752 mmHg 70%
16:00 +14°C° 0.1 mm 3 mps 752 mmHg 73%
17:00 +14°C° 0.1 mm 3 mps 752 mmHg 75%
18:00 +15°C° 0.1 mm 2 mps 751 mmHg 77%
19:00 +14°C° 0.1 mm 2 mps 751 mmHg 82%
20:00 +12°C° 0.1 mm 1 mps 752 mmHg 86%
21:00 +11°C° 0.1 mm 1 mps 752 mmHg 90%
22:00 +11°C° 0 mm 1 mps 752 mmHg 91%
23:00 +10°C° 0 mm 1 mps 752 mmHg 92%

Tomorrow, 8 July, Wednesday

Time Temperature Precipitation Wind Pressure Humidity
00:00 +8°C° 0 mm 0 mps 752 mmHg 93%
01:00 +9°C° 0 mm 1 mps 752 mmHg 94%
02:00 +9°C° 0 mm 1 mps 752 mmHg 94%
03:00 +9°C° 0 mm 1 mps 752 mmHg 94%
04:00 +10°C° 0 mm 1 mps 752 mmHg 93%
05:00 +11°C° 0 mm 1 mps 752 mmHg 92%
06:00 +11°C° 0 mm 1 mps 752 mmHg 91%
07:00 +12°C° 0 mm 1 mps 753 mmHg 88%
08:00 +13°C° 0 mm 1 mps 753 mmHg 84%
09:00 +14°C° 0 mm 1 mps 753 mmHg 80%
10:00 +15°C° 0.2 mm 1 mps 753 mmHg 77%
11:00 +16°C° 0.2 mm 1 mps 753 mmHg 73%
12:00 +18°C° 0.2 mm 1 mps 753 mmHg 70%
13:00 +18°C° 0.3 mm 1 mps 753 mmHg 71%
14:00 +18°C° 0.3 mm 1 mps 753 mmHg 72%
15:00 +17°C° 0.3 mm 2 mps 752 mmHg 73%
16:00 +16°C° 0.4 mm 1 mps 752 mmHg 76%
17:00 +16°C° 0.4 mm 1 mps 752 mmHg 80%
18:00 +16°C° 0.4 mm 1 mps 752 mmHg 83%
19:00 +15°C° 0.2 mm 1 mps 752 mmHg 85%
20:00 +14°C° 0.2 mm 1 mps 752 mmHg 86%
21:00 +12°C° 0.2 mm 0 mps 752 mmHg 87%
22:00 +11°C° 0 mm 0 mps 752 mmHg 88%
23:00 +11°C° 0 mm 0 mps 752 mmHg 89%

Day after tomorrow, 9 July, Thursday

Time Temperature Precipitation Wind Pressure Humidity
00:00 +10°C° 0 mm 0 mps 751 mmHg 90%
01:00 +10°C° 0 mm 0 mps 751 mmHg 91%
02:00 +9°C° 0 mm 0 mps 751 mmHg 93%
03:00 +10°C° 0 mm 1 mps 751 mmHg 94%
04:00 +10°C° 0 mm 1 mps 751 mmHg 94%
05:00 +11°C° 0 mm 1 mps 751 mmHg 94%
06:00 +12°C° 0 mm 1 mps 750 mmHg 94%
07:00 +13°C° 0 mm 1 mps 750 mmHg 91%
08:00 +14°C° 0 mm 1 mps 750 mmHg 88%
09:00 +14°C° 0 mm 1 mps 750 mmHg 86%
10:00 +15°C° 0.2 mm 1 mps 750 mmHg 84%
11:00 +16°C° 0.2 mm 1 mps 750 mmHg 81%
12:00 +16°C° 0.2 mm 1 mps 750 mmHg 79%
13:00 +18°C° 1 mm 1 mps 750 mmHg 79%
14:00 +18°C° 1 mm 1 mps 749 mmHg 79%
15:00 +17°C° 1 mm 2 mps 749 mmHg 79%
16:00 +17°C° 1.2 mm 2 mps 749 mmHg 80%
17:00 +16°C° 1.2 mm 2 mps 749 mmHg 82%
18:00 +15°C° 1.2 mm 2 mps 749 mmHg 84%
19:00 +13°C° 0.4 mm 3 mps 749 mmHg 86%
20:00 +12°C° 0.4 mm 3 mps 750 mmHg 88%
21:00 +11°C° 0.4 mm 3 mps 750 mmHg 90%
22:00 +10°C° 0.1 mm 2 mps 750 mmHg 91%
23:00 +10°C° 0.1 mm 2 mps 750 mmHg 92%

10 July, Friday

Time Temperature Precipitation Wind Pressure Humidity
00:00 +10°C° 0.1 mm 2 mps 750 mmHg 93%
01:00 +10°C° 0.1 mm 2 mps 751 mmHg 93%
02:00 +10°C° 0.1 mm 1 mps 751 mmHg 93%
03:00 +10°C° 0.1 mm 1 mps 751 mmHg 93%
04:00 +10°C° 0 mm 1 mps 752 mmHg 92%
05:00 +11°C° 0 mm 1 mps 752 mmHg 90%
06:00 +10°C° 0 mm 2 mps 752 mmHg 89%
07:00 +12°C° 0 mm 2 mps 753 mmHg 81%
08:00 +12°C° 0 mm 3 mps 753 mmHg 72%
09:00 +14°C° 0 mm 4 mps 754 mmHg 64%
10:00 +14°C° 0.1 mm 4 mps 754 mmHg 64%
11:00 +15°C° 0.1 mm 4 mps 754 mmHg 64%
12:00 +15°C° 0.1 mm 4 mps 755 mmHg 64%
13:00 +15°C° 0.3 mm 5 mps 755 mmHg 66%
14:00 +15°C° 0.3 mm 6 mps 755 mmHg 68%
15:00 +15°C° 0.3 mm 6 mps 755 mmHg 71%
16:00 +14°C° 0.1 mm 6 mps 755 mmHg 71%
17:00 +14°C° 0.1 mm 5 mps 755 mmHg 71%
18:00 +14°C° 0.1 mm 5 mps 755 mmHg 71%
19:00 +13°C° 0 mm 5 mps 756 mmHg 73%
20:00 +11°C° 0 mm 4 mps 756 mmHg 76%
21:00 +10°C° 0 mm 3 mps 756 mmHg 78%
22:00 +9°C° 0 mm 3 mps 757 mmHg 81%
23:00 +8°C° 0 mm 3 mps 757 mmHg 84%

11 July, Saturday

Time Temperature Precipitation Wind Pressure Humidity
00:00 +7°C° 0 mm 3 mps 757 mmHg 87%
01:00 +7°C° 0 mm 3 mps 757 mmHg 89%
02:00 +7°C° 0 mm 2 mps 757 mmHg 90%
03:00 +7°C° 0 mm 2 mps 757 mmHg 91%
04:00 +8°C° 0 mm 2 mps 757 mmHg 90%
05:00 +8°C° 0 mm 3 mps 758 mmHg 88%
06:00 +9°C° 0 mm 3 mps 758 mmHg 87%
07:00 +11°C° 0 mm 3 mps 758 mmHg 80%
08:00 +12°C° 0 mm 3 mps 758 mmHg 74%
09:00 +14°C° 0 mm 4 mps 758 mmHg 68%
10:00 +14°C° 0 mm 4 mps 759 mmHg 66%
11:00 +15°C° 0 mm 4 mps 759 mmHg 64%
12:00 +15°C° 0 mm 5 mps 759 mmHg 62%
13:00 +15°C° 0 mm 5 mps 759 mmHg 62%
14:00 +16°C° 0 mm 5 mps 759 mmHg 62%
15:00 +16°C° 0 mm 5 mps 759 mmHg 62%
16:00 +15°C° 0 mm 4 mps 759 mmHg 65%
17:00 +15°C° 0 mm 4 mps 759 mmHg 67%
18:00 +15°C° 0 mm 4 mps 759 mmHg 69%
19:00 +13°C° 0 mm 3 mps 759 mmHg 74%
20:00 +12°C° 0 mm 3 mps 759 mmHg 79%
21:00 +10°C° 0 mm 2 mps 759 mmHg 84%
22:00 +10°C° 0 mm 2 mps 759 mmHg 86%
23:00 +10°C° 0 mm 2 mps 759 mmHg 87%

12 July, Sunday

Time Temperature Precipitation Wind Pressure Humidity
00:00 +9°C° 0 mm 2 mps 759 mmHg 88%
01:00 +10°C° 0 mm 2 mps 759 mmHg 87%
02:00 +10°C° 0 mm 2 mps 759 mmHg 85%
03:00 +12°C° 0 mm 2 mps 759 mmHg 84%
04:00 +12°C° 0 mm 2 mps 759 mmHg 85%
05:00 +13°C° 0 mm 2 mps 759 mmHg 86%
06:00 +13°C° 0 mm 2 mps 759 mmHg 87%
07:00 +13°C° 0 mm 3 mps 759 mmHg 84%
08:00 +14°C° 0 mm 3 mps 759 mmHg 80%
09:00 +14°C° 0 mm 3 mps 759 mmHg 77%
10:00 +15°C° 0 mm 4 mps 759 mmHg 75%
11:00 +17°C° 0 mm 4 mps 759 mmHg 72%
12:00 +18°C° 0 mm 4 mps 759 mmHg 69%
13:00 +18°C° 0 mm 4 mps 759 mmHg 70%
14:00 +18°C° 0 mm 4 mps 759 mmHg 70%
15:00 +18°C° 0 mm 4 mps 759 mmHg 71%
16:00 +18°C° 0 mm 4 mps 759 mmHg 72%
17:00 +18°C° 0 mm 3 mps 758 mmHg 74%
18:00 +18°C° 0 mm 3 mps 758 mmHg 75%
19:00 +16°C° 0 mm 3 mps 758 mmHg 80%
20:00 +15°C° 0 mm 2 mps 758 mmHg 84%
21:00 +14°C° 0 mm 2 mps 758 mmHg 89%
22:00 +13°C° 0 mm 2 mps 758 mmHg 89%
23:00 +12°C° 0 mm 2 mps 758 mmHg 90%
Show more